| time (UTC) | temp C | wind direction | speed KPH | gust KPH | rain 1hr cm | rain 24hr cm | rain mn cm | humidity % | barometer mb |
| 20260906101054 | 35 | 128 | 4.8 | 25.7 | 0.00 | 0.00 | 0.00 | 29 | 1018.3 |
| 20260906100556 | 35 | 34 | 14.5 | 25.7 | 0.00 | 0.00 | 0.00 | 28 | 1018.3 |
| 20260906100053 | 35 | 112 | 12.9 | 22.5 | 0.00 | 0.00 | 0.00 | 28 | 1018.2 |
| 20260906095550 | 35 | 105 | 12.9 | 19.3 | 0.00 | 0.00 | 0.00 | 28 | 1018.3 |
| 20260906095048 | 34 | 97 | 1.6 | 8.0 | 0.00 | 0.00 | 0.00 | 29 | 1018.3 |
| 20260906094556 | 34 | 86 | 1.6 | 8.0 | 0.00 | 0.00 | 0.00 | 30 | 1018.3 |
| 20260906094045 | 33 | 171 | 3.2 | 11.3 | 0.00 | 0.00 | 0.00 | 30 | 1018.2 |
| 20260906093545 | 33 | 277 | 6.4 | 11.3 | 0.00 | 0.00 | 0.00 | 30 | 1018.3 |
| 20260906093047 | 33 | 204 | 3.2 | 11.3 | 0.00 | 0.00 | 0.00 | 31 | 1018.4 |
| 20260906092542 | 33 | 36 | 4.8 | 9.7 | 0.00 | 0.00 | 0.00 | 31 | 1018.4 |
| 20260906092041 | 33 | 275 | 4.8 | 12.9 | 0.00 | 0.00 | 0.00 | 31 | 1018.5 |
| 20260906091556 | 33 | 272 | 8.0 | 12.9 | 0.00 | 0.00 | 0.00 | 31 | 1018.5 |
| 20260906091042 | 33 | 253 | 3.2 | 8.0 | 0.00 | 0.00 | 0.00 | 30 | 1018.4 |
| 20260906090539 | 33 | 288 | 1.6 | 4.8 | 0.00 | 0.00 | 0.00 | 31 | 1018.5 |
| 20260906090037 | 33 | 267 | 1.6 | 8.0 | 0.00 | 0.00 | 0.00 | 31 | 1018.6 |
| 20260906085536 | 32 | 298 | 3.2 | 8.0 | 0.00 | 0.00 | 0.00 | 32 | 1018.7 |
| 20260906085034 | 32 | 344 | 4.8 | 11.3 | 0.00 | 0.00 | 0.00 | 32 | 1018.7 |
| 20260906084533 | 32 | 246 | 4.8 | 11.3 | 0.00 | 0.00 | 0.00 | 32 | 1018.8 |
| 20260906084031 | 32 | 322 | 1.6 | 11.3 | 0.00 | 0.00 | 0.00 | 32 | 1018.9 |
| 20260906083531 | 32 | 261 | 3.2 | 6.4 | 0.00 | 0.00 | 0.00 | 32 | 1018.8 |
| 20260906083034 | 32 | 248 | 3.2 | 6.4 | 0.00 | 0.00 | 0.00 | 32 | 1018.8 |
| 20260906082527 | 31 | 251 | 1.6 | 6.4 | 0.00 | 0.00 | 0.00 | 33 | 1018.8 |
| 20260906082027 | 31 | 233 | 3.2 | 8.0 | 0.00 | 0.00 | 0.00 | 33 | 1018.9 |
| 20260906081526 | 32 | 264 | 3.2 | 11.3 | 0.00 | 0.00 | 0.00 | 33 | 1018.9 |
| 20260906081025 | 31 | 267 | 3.2 | 11.3 | 0.00 | 0.00 | 0.00 | 33 | 1018.9 |
| 20260906080524 | 31 | 274 | 8.0 | 11.3 | 0.00 | 0.00 | 0.00 | 33 | 1019.0 |
| 20260906080030 | 31 | 250 | 8.0 | 11.3 | 0.00 | 0.00 | 0.00 | 33 | 1019.0 |
| 20260906075524 | 31 | 262 | 4.8 | 12.9 | 0.00 | 0.00 | 0.00 | 33 | 1019.0 |
| 20260906075021 | 31 | 189 | 3.2 | 12.9 | 0.00 | 0.00 | 0.00 | 34 | 1019.0 |
| 20260906074520 | 31 | 248 | 6.4 | 12.9 | 0.00 | 0.00 | 0.00 | 34 | 1018.9 |
| 20260906074019 | 30 | 267 | 6.4 | 12.9 | 0.00 | 0.00 | 0.00 | 34 | 1018.8 |
| 20260906073517 | 30 | 262 | 9.7 | 12.9 | 0.00 | 0.00 | 0.00 | 34 | 1018.8 |
| 20260906073018 | 30 | 238 | 6.4 | 11.3 | 0.00 | 0.00 | 0.00 | 35 | 1018.7 |
| 20260906072515 | 30 | 209 | 4.8 | 11.3 | 0.00 | 0.00 | 0.00 | 35 | 1018.7 |
| 20260906072012 | 30 | 255 | 6.4 | 11.3 | 0.00 | 0.00 | 0.00 | 36 | 1018.7 |
| 20260906071511 | 30 | 263 | 6.4 | 8.0 | 0.00 | 0.00 | 0.00 | 36 | 1018.6 |
| 20260906071013 | 29 | 257 | 4.8 | 9.7 | 0.00 | 0.00 | 0.00 | 36 | 1018.6 |
| 20260906070508 | 29 | 259 | 3.2 | 9.7 | 0.00 | 0.00 | 0.00 | 37 | 1018.6 |
| 20260906070008 | 29 | 244 | 3.2 | 6.4 | 0.00 | 0.00 | 0.00 | 37 | 1018.5 |
| 20260906065506 | 29 | 203 | 0.0 | 4.8 | 0.00 | 0.00 | 0.00 | 37 | 1018.5 |
| 20260906065004 | 28 | 265 | 1.6 | 4.8 | 0.00 | 0.00 | 0.00 | 38 | 1018.4 |
| 20260906064502 | 28 | 284 | 1.6 | 4.8 | 0.00 | 0.00 | 0.00 | 38 | 1018.4 |
| 20260906064000 | 28 | 326 | 1.6 | 4.8 | 0.00 | 0.00 | 0.00 | 38 | 1018.4 |
| 20260906063559 | 28 | 43 | 0.0 | 3.2 | 0.00 | 0.00 | 0.00 | 39 | 1018.3 |
| 20260906063101 | 28 | 315 | 0.0 | 3.2 | 0.00 | 0.00 | 0.00 | 39 | 1018.3 |
| 20260906062557 | 27 | 330 | 0.0 | 3.2 | 0.00 | 0.00 | 0.00 | 39 | 1018.2 |
| 20260906062055 | 27 | 20 | 0.0 | 4.8 | 0.00 | 0.00 | 0.00 | 40 | 1018.1 |
| 20260906061555 | 27 | 360 | 0.0 | 4.8 | 0.00 | 0.00 | 0.00 | 40 | 1018.1 |
| 20260906061053 | 26 | 5 | 0.0 | 4.8 | 0.00 | 0.00 | 0.00 | 40 | 1018.1 |
| 20260906060552 | 26 | 25 | 0.0 | 3.2 | 0.00 | 0.00 | 0.00 | 41 | 1018.0 |
| 20260906060051 | 26 | 38 | 0.0 | 6.4 | 0.00 | 0.00 | 0.00 | 42 | 1018.0 |
| 20260906055549 | 26 | 61 | 1.6 | 6.4 | 0.00 | 0.00 | 0.00 | 42 | 1018.0 |
| 20260906055048 | 25 | 44 | 1.6 | 6.4 | 0.00 | 0.00 | 0.00 | 45 | 1018.0 |
| 20260906054547 | 25 | 36 | 0.0 | 6.4 | 0.00 | 0.00 | 0.00 | 47 | 1017.9 |
| 20260906054046 | 24 | 19 | 1.6 | 6.4 | 0.00 | 0.00 | 0.00 | 48 | 1017.9 |
| 20260906053544 | 23 | 26 | 1.6 | 6.4 | 0.00 | 0.00 | 0.00 | 49 | 1017.9 |
| 20260906053058 | 23 | 5 | 3.2 | 8.0 | 0.00 | 0.00 | 0.00 | 50 | 1017.8 |
| 20260906052548 | 23 | 21 | 4.8 | 8.0 | 0.00 | 0.00 | 0.00 | 51 | 1017.9 |
| 20260906052041 | 23 | 32 | 4.8 | 8.0 | 0.00 | 0.00 | 0.00 | 51 | 1017.9 |
| 20260906051540 | 23 | 19 | 3.2 | 8.0 | 0.00 | 0.00 | 0.00 | 50 | 1018.0 |
| 20260906051037 | 23 | 74 | 3.2 | 9.7 | 0.00 | 0.00 | 0.00 | 50 | 1017.9 |
| 20260906050535 | 22 | 34 | 3.2 | 9.7 | 0.00 | 0.00 | 0.00 | 51 | 1018.0 |
| 20260906050046 | 22 | 36 | 3.2 | 9.7 | 0.00 | 0.00 | 0.00 | 51 | 1017.9 |
| 20260906045535 | 22 | 22 | 3.2 | 9.7 | 0.00 | 0.00 | 0.00 | 51 | 1017.9 |
| 20260906045032 | 22 | 47 | 3.2 | 8.0 | 0.00 | 0.00 | 0.00 | 51 | 1017.8 |
| 20260906044532 | 22 | 43 | 4.8 | 8.0 | 0.00 | 0.00 | 0.00 | 52 | 1017.9 |
| 20260906044032 | 22 | 104 | 0.0 | 9.7 | 0.00 | 0.00 | 0.00 | 51 | 1017.8 |
| 20260906043529 | 22 | 84 | 1.6 | 9.7 | 0.00 | 0.00 | 0.00 | 50 | 1017.8 |
| 20260906043031 | 22 | 55 | 1.6 | 8.0 | 0.00 | 0.00 | 0.00 | 50 | 1017.7 |
| 20260906042525 | 22 | 71 | 3.2 | 12.9 | 0.00 | 0.00 | 0.00 | 50 | 1017.6 |
| 20260906042024 | 22 | 48 | 3.2 | 16.1 | 0.00 | 0.00 | 0.00 | 50 | 1017.6 |
| 20260906041524 | 21 | 67 | 9.7 | 16.1 | 0.00 | 0.00 | 0.00 | 51 | 1017.6 |
| 20260906041024 | 21 | 47 | 9.7 | 14.5 | 0.00 | 0.00 | 0.00 | 51 | 1017.5 |
| 20260906040523 | 21 | 49 | 9.7 | 14.5 | 0.00 | 0.00 | 0.00 | 52 | 1017.5 |
| 20260906040023 | 20 | 59 | 8.0 | 14.5 | 0.00 | 0.00 | 0.00 | 52 | 1017.5 |
| 20260906035522 | 20 | 53 | 6.4 | 11.3 | 0.00 | 0.00 | 0.00 | 53 | 1017.5 |
| 20260906035022 | 20 | 38 | 6.4 | 12.9 | 0.00 | 0.00 | 0.00 | 53 | 1017.4 |
| 20260906034522 | 20 | 360 | 6.4 | 16.1 | 0.00 | 0.00 | 0.00 | 53 | 1017.5 |
| 20260906034020 | 21 | 14 | 4.8 | 16.1 | 0.00 | 0.00 | 0.00 | 52 | 1017.5 |
| 20260906033521 | 21 | 62 | 4.8 | 14.5 | 0.00 | 0.00 | 0.00 | 50 | 1017.4 |
| 20260906033024 | 21 | 89 | 9.7 | 14.5 | 0.00 | 0.00 | 0.00 | 51 | 1017.4 |
| 20260906032520 | 21 | 59 | 8.0 | 12.9 | 0.00 | 0.00 | 0.00 | 52 | 1017.4 |
| 20260906032021 | 21 | 9 | 4.8 | 12.9 | 0.00 | 0.00 | 0.00 | 51 | 1017.3 |
| 20260906031520 | 22 | 68 | 3.2 | 8.0 | 0.00 | 0.00 | 0.00 | 50 | 1017.3 |
| 20260906031019 | 21 | 86 | 4.8 | 8.0 | 0.00 | 0.00 | 0.00 | 50 | 1017.4 |
| 20260906030520 | 21 | 61 | 3.2 | 9.7 | 0.00 | 0.00 | 0.00 | 50 | 1017.3 |
| 20260906030022 | 21 | 50 | 6.4 | 12.9 | 0.00 | 0.00 | 0.00 | 51 | 1017.3 |
| 20260906025519 | 21 | 71 | 6.4 | 12.9 | 0.00 | 0.00 | 0.00 | 52 | 1017.3 |
| 20260906025019 | 21 | 65 | 3.2 | 11.3 | 0.00 | 0.00 | 0.00 | 52 | 1017.2 |
| 20260906024518 | 21 | 34 | 3.2 | 12.9 | 0.00 | 0.00 | 0.00 | 52 | 1017.1 |
| 20260906024018 | 21 | 59 | 4.8 | 9.7 | 0.00 | 0.00 | 0.00 | 52 | 1017.1 |
| 20260906023518 | 21 | 38 | 4.8 | 14.5 | 0.00 | 0.00 | 0.00 | 52 | 1017.1 |
| 20260906023017 | 21 | 59 | 6.4 | 14.5 | 0.00 | 0.00 | 0.00 | 52 | 1017.0 |
| 20260906022516 | 21 | 26 | 6.4 | 14.5 | 0.00 | 0.00 | 0.00 | 50 | 1017.0 |
| 20260906022015 | 22 | 88 | 6.4 | 14.5 | 0.00 | 0.00 | 0.00 | 49 | 1017.1 |
| 20260906021515 | 21 | 86 | 6.4 | 14.5 | 0.00 | 0.00 | 0.00 | 50 | 1017.1 |
| 20260906021020 | 21 | 28 | 3.2 | 14.5 | 0.00 | 0.00 | 0.00 | 50 | 1017.2 |
| 20260906020515 | 21 | 61 | 8.0 | 14.5 | 0.00 | 0.00 | 0.00 | 50 | 1017.1 |
| 20260906020015 | 21 | 55 | 6.4 | 14.5 | 0.00 | 0.00 | 0.00 | 50 | 1017.1 |
| 20260906015514 | 21 | 40 | 8.0 | 14.5 | 0.00 | 0.00 | 0.00 | 50 | 1017.1 |
| 20260906015014 | 21 | 53 | 4.8 | 14.5 | 0.00 | 0.00 | 0.00 | 52 | 1017.0 |
| 20260906014513 | 20 | 55 | 9.7 | 14.5 | 0.00 | 0.00 | 0.00 | 52 | 1017.2 |
| 20260906014013 | 21 | 24 | 6.4 | 8.0 | 0.00 | 0.00 | 0.00 | 52 | 1017.1 |
| 20260906013511 | 21 | 36 | 3.2 | 6.4 | 0.00 | 0.00 | 0.00 | 51 | 1017.0 |
| 20260906013011 | 22 | 30 | 4.8 | 9.7 | 0.00 | 0.00 | 0.00 | 50 | 1017.2 |
| 20260906012510 | 22 | 96 | 3.2 | 11.3 | 0.00 | 0.00 | 0.00 | 48 | 1017.1 |
| 20260906012010 | 22 | 94 | 6.4 | 11.3 | 0.00 | 0.00 | 0.00 | 49 | 1017.1 |
| 20260906011510 | 22 | 88 | 1.6 | 6.4 | 0.00 | 0.00 | 0.00 | 49 | 1017.3 |
| 20260906011010 | 22 | 88 | 0.0 | 8.0 | 0.00 | 0.00 | 0.00 | 48 | 1017.3 |
| 20260906010509 | 21 | 82 | 4.8 | 9.7 | 0.00 | 0.00 | 0.00 | 49 | 1017.2 |
| 20260906010008 | 21 | 62 | 6.4 | 9.7 | 0.00 | 0.00 | 0.00 | 50 | 1017.2 |
| 20260906005508 | 21 | 34 | 6.4 | 9.7 | 0.00 | 0.00 | 0.00 | 50 | 1017.3 |
| 20260906005008 | 21 | 35 | 6.4 | 14.5 | 0.00 | 0.00 | 0.00 | 50 | 1017.1 |
| 20260906004508 | 21 | 45 | 9.7 | 14.5 | 0.00 | 0.00 | 0.00 | 51 | 1017.2 |
| 20260906004007 | 21 | 35 | 9.7 | 14.5 | 0.00 | 0.00 | 0.00 | 50 | 1017.2 |
| 20260906003506 | 21 | 17 | 6.4 | 9.7 | 0.00 | 0.00 | 0.00 | 50 | 1017.0 |
| 20260906003005 | 21 | 49 | 4.8 | 12.9 | 0.00 | 0.00 | 0.00 | 49 | 1017.1 |
| 20260906002503 | 22 | 5 | 4.8 | 8.0 | 0.00 | 0.00 | 0.00 | 48 | 1017.1 |
| 20260906002003 | 22 | 51 | 4.8 | 8.0 | 0.00 | 0.00 | 0.00 | 47 | 1017.1 |
| 20260906001507 | 22 | 84 | 4.8 | 8.0 | 0.00 | 0.00 | 0.00 | 48 | 1017.1 |
| 20260906001002 | 22 | 10 | 3.2 | 11.3 | 0.00 | 0.00 | 0.00 | 48 | 1017.1 |
| 20260906000601 | 22 | 105 | 6.4 | 14.5 | 0.00 | 0.00 | 0.00 | 48 | 1017.0 |
| 20260906000105 | 22 | 46 | 9.7 | 14.5 | 0.00 | 0.00 | 0.00 | 49 | 1017.1 |
| 20260905235559 | 22 | 36 | 4.8 | 8.0 | 0.00 | 0.00 | 0.00 | 49 | 1017.1 |
| 20260905235059 | 22 | 69 | 4.8 | 9.7 | 0.00 | 0.00 | 0.00 | 48 | 1017.1 |
| 20260905234558 | 23 | 11 | 6.4 | 14.5 | 0.00 | 0.00 | 0.00 | 47 | 1017.2 |
| 20260905234057 | 23 | 32 | 6.4 | 12.9 | 0.00 | 0.00 | 0.00 | 45 | 1017.2 |
| 20260905233557 | 23 | 82 | 8.0 | 14.5 | 0.00 | 0.00 | 0.00 | 46 | 1017.3 |
| 20260905233057 | 22 | 66 | 8.0 | 14.5 | 0.00 | 0.00 | 0.00 | 46 | 1017.4 |
| 20260905232555 | 22 | 62 | 4.8 | 9.7 | 0.00 | 0.00 | 0.00 | 46 | 1017.4 |
| 20260905232055 | 22 | 46 | 4.8 | 9.7 | 0.00 | 0.00 | 0.00 | 47 | 1017.6 |
| 20260905231554 | 22 | 25 | 6.4 | 9.7 | 0.00 | 0.00 | 0.00 | 47 | 1017.6 |
| 20260905231054 | 23 | 91 | 4.8 | 9.7 | 0.00 | 0.00 | 0.00 | 46 | 1017.5 |
| 20260905230553 | 23 | 24 | 4.8 | 6.4 | 0.00 | 0.00 | 0.00 | 46 | 1017.6 |
| 20260905230054 | 23 | 56 | 3.2 | 11.3 | 0.00 | 0.00 | 0.00 | 46 | 1017.7 |
| 20260905225553 | 22 | 59 | 4.8 | 14.5 | 0.00 | 0.00 | 0.00 | 46 | 1017.7 |
| 20260905225052 | 22 | 30 | 8.0 | 14.5 | 0.00 | 0.00 | 0.00 | 46 | 1017.7 |
| 20260905224554 | 22 | 35 | 4.8 | 8.0 | 0.00 | 0.00 | 0.00 | 46 | 1017.7 |
| 20260905224050 | 22 | 26 | 3.2 | 6.4 | 0.00 | 0.00 | 0.00 | 47 | 1017.7 |
| 20260905223552 | 23 | 33 | 3.2 | 6.4 | 0.00 | 0.00 | 0.00 | 47 | 1017.7 |
| 20260905223050 | 23 | 20 | 3.2 | 6.4 | 0.00 | 0.00 | 0.00 | 47 | 1017.7 |
| 20260905222549 | 23 | 13 | 3.2 | 4.8 | 0.00 | 0.00 | 0.00 | 46 | 1017.8 |
| 20260905222048 | 23 | 90 | 0.0 | 3.2 | 0.00 | 0.00 | 0.00 | 45 | 1017.8 |
| 20260905221547 | 24 | 92 | 0.0 | 4.8 | 0.00 | 0.00 | 0.00 | 44 | 1017.7 |
| 20260905221047 | 24 | 91 | 0.0 | 6.4 | 0.00 | 0.00 | 0.00 | 43 | 1017.7 |
| 20260905220547 | 24 | 91 | 3.2 | 8.0 | 0.00 | 0.00 | 0.00 | 43 | 1017.6 |
| 20260905220047 | 24 | 70 | 4.8 | 8.0 | 0.00 | 0.00 | 0.00 | 43 | 1017.6 |
| 20260905215547 | 24 | 69 | 0.0 | 8.0 | 0.00 | 0.00 | 0.00 | 43 | 1017.6 |
| 20260905215046 | 23 | 50 | 3.2 | 8.0 | 0.00 | 0.00 | 0.00 | 43 | 1017.7 |
| 20260905214545 | 23 | 30 | 3.2 | 8.0 | 0.00 | 0.00 | 0.00 | 44 | 1017.7 |
| 20260905214045 | 23 | 24 | 6.4 | 16.1 | 0.00 | 0.00 | 0.00 | 45 | 1017.7 |
| 20260905213546 | 23 | 17 | 6.4 | 16.1 | 0.00 | 0.00 | 0.00 | 45 | 1017.8 |
| 20260905213043 | 23 | 13 | 4.8 | 6.4 | 0.00 | 0.00 | 0.00 | 44 | 1017.8 |
| 20260905212542 | 24 | 42 | 1.6 | 4.8 | 0.00 | 0.00 | 0.00 | 44 | 1017.8 |
| 20260905212040 | 25 | 46 | 1.6 | 6.4 | 0.00 | 0.00 | 0.00 | 43 | 1017.8 |
| 20260905211549 | 25 | 5 | 3.2 | 6.4 | 0.00 | 0.00 | 0.00 | 42 | 1017.8 |
| 20260905211038 | 25 | 105 | 1.6 | 9.7 | 0.00 | 0.00 | 0.00 | 41 | 1017.8 |
| 20260905210539 | 25 | 126 | 3.2 | 12.9 | 0.00 | 0.00 | 0.00 | 42 | 1017.9 |
| 20260905210039 | 25 | 321 | 1.6 | 11.3 | 0.00 | 0.00 | 0.00 | 42 | 1017.9 |
| 20260905205536 | 25 | 68 | 4.8 | 8.0 | 0.00 | 0.00 | 0.00 | 42 | 1018.0 |
| 20260905205036 | 25 | 61 | 4.8 | 14.5 | 0.00 | 0.00 | 0.00 | 42 | 1017.9 |
| 20260905204538 | 25 | 57 | 4.8 | 14.5 | 0.00 | 0.00 | 0.00 | 42 | 1018.0 |
| 20260905204036 | 25 | 51 | 3.2 | 4.8 | 0.00 | 0.00 | 0.00 | 42 | 1018.0 |
| 20260905203535 | 25 | 31 | 3.2 | 4.8 | 0.00 | 0.00 | 0.00 | 43 | 1017.9 |
| 20260905203036 | 25 | 336 | 1.6 | 4.8 | 0.00 | 0.00 | 0.00 | 42 | 1017.9 |
| 20260905202535 | 25 | 26 | 0.0 | 4.8 | 0.00 | 0.00 | 0.00 | 42 | 1017.9 |
| 20260905202035 | 25 | 27 | 0.0 | 8.0 | 0.00 | 0.00 | 0.00 | 41 | 1017.9 |
| 20260905201535 | 26 | 17 | 3.2 | 8.0 | 0.00 | 0.00 | 0.00 | 41 | 1017.9 |
| 20260905201035 | 26 | 61 | 3.2 | 6.4 | 0.00 | 0.00 | 0.00 | 40 | 1017.9 |
| 20260905200534 | 26 | 52 | 1.6 | 6.4 | 0.00 | 0.00 | 0.00 | 40 | 1017.9 |
| 20260905200039 | 26 | 360 | 0.0 | 4.8 | 0.00 | 0.00 | 0.00 | 40 | 1017.9 |
| 20260905195534 | 26 | 355 | 1.6 | 4.8 | 0.00 | 0.00 | 0.00 | 39 | 1018.0 |
| 20260905195034 | 26 | 355 | 1.6 | 4.8 | 0.00 | 0.00 | 0.00 | 40 | 1018.1 |
| 20260905194533 | 26 | 355 | 0.0 | 3.2 | 0.00 | 0.00 | 0.00 | 40 | 1018.0 |
| 20260905194033 | 26 | 355 | 0.0 | 6.4 | 0.00 | 0.00 | 0.00 | 40 | 1018.1 |
| 20260905193535 | 26 | 360 | 1.6 | 6.4 | 0.00 | 0.00 | 0.00 | 40 | 1018.1 |
| 20260905193031 | 26 | 28 | 0.0 | 6.4 | 0.00 | 0.00 | 0.00 | 40 | 1018.1 |
| 20260905192531 | 26 | 31 | 1.6 | 9.7 | 0.00 | 0.00 | 0.00 | 39 | 1018.1 |
| 20260905192030 | 27 | 11 | 4.8 | 11.3 | 0.00 | 0.00 | 0.00 | 39 | 1018.1 |
| 20260905191531 | 27 | 38 | 3.2 | 4.8 | 0.00 | 0.00 | 0.00 | 39 | 1018.1 |
| 20260905191031 | 27 | 117 | 1.6 | 4.8 | 0.00 | 0.00 | 0.00 | 38 | 1018.0 |
| 20260905190530 | 27 | 118 | 1.6 | 6.4 | 0.00 | 0.00 | 0.00 | 38 | 1018.0 |
| 20260905190030 | 27 | 121 | 1.6 | 9.7 | 0.00 | 0.00 | 0.00 | 38 | 1018.0 |
| 20260905185530 | 27 | 111 | 3.2 | 9.7 | 0.00 | 0.00 | 0.00 | 38 | 1018.0 |
| 20260905185030 | 27 | 164 | 1.6 | 8.0 | 0.00 | 0.00 | 0.00 | 39 | 1017.9 |
| 20260905184545 | 27 | 277 | 0.0 | 4.8 | 0.00 | 0.00 | 0.00 | 38 | 1017.9 |
| 20260905184029 | 27 | 269 | 3.2 | 4.8 | 0.00 | 0.00 | 0.00 | 38 | 1018.0 |
| 20260905183532 | 27 | 302 | 1.6 | 4.8 | 0.00 | 0.00 | 0.00 | 38 | 1017.9 |
| 20260905183041 | 27 | 300 | 0.0 | 4.8 | 0.00 | 0.00 | 0.00 | 38 | 1017.8 |
| 20260905182533 | 27 | 65 | 0.0 | 14.5 | 0.00 | 0.00 | 0.00 | 38 | 1017.7 |
| 20260905182029 | 27 | 82 | 4.8 | 14.5 | 0.00 | 0.00 | 0.00 | 38 | 1017.7 |
| 20260905181532 | 27 | 71 | 4.8 | 16.1 | 0.00 | 0.00 | 0.00 | 38 | 1017.7 |
| 20260905181028 | 27 | 73 | 8.0 | 16.1 | 0.00 | 0.00 | 0.00 | 38 | 1017.6 |
| 20260905180528 | 28 | 67 | 4.8 | 12.9 | 0.00 | 0.00 | 0.00 | 38 | 1017.5 |
| 20260905180034 | 28 | 76 | 6.4 | 14.5 | 0.00 | 0.00 | 0.00 | 38 | 1017.6 |
| 20260905175528 | 27 | 103 | 8.0 | 14.5 | 0.00 | 0.00 | 0.00 | 38 | 1017.6 |
| 20260905175027 | 28 | 86 | 9.7 | 16.1 | 0.00 | 0.00 | 0.00 | 38 | 1017.6 |
| 20260905174527 | 28 | 76 | 4.8 | 16.1 | 0.00 | 0.00 | 0.00 | 38 | 1017.5 |
| 20260905174027 | 28 | 76 | 8.0 | 20.9 | 0.00 | 0.00 | 0.00 | 38 | 1017.5 |
| 20260905173527 | 28 | 82 | 6.4 | 17.7 | 0.00 | 0.00 | 0.00 | 38 | 1017.4 |
| 20260905173028 | 28 | 71 | 8.0 | 22.5 | 0.00 | 0.00 | 0.00 | 38 | 1017.4 |
| 20260905172527 | 28 | 53 | 9.7 | 22.5 | 0.00 | 0.00 | 0.00 | 37 | 1017.4 |
| 20260905172028 | 28 | 113 | 11.3 | 22.5 | 0.00 | 0.00 | 0.00 | 37 | 1017.4 |
| 20260905171526 | 28 | 108 | 11.3 | 20.9 | 0.00 | 0.00 | 0.00 | 37 | 1017.2 |
| 20260905171029 | 28 | 66 | 12.9 | 20.9 | 0.00 | 0.00 | 0.00 | 37 | 1017.2 |
| 20260905170526 | 28 | 69 | 9.7 | 20.9 | 0.00 | 0.00 | 0.00 | 37 | 1017.2 |
| 20260905170026 | 29 | 98 | 12.9 | 24.1 | 0.00 | 0.00 | 0.00 | 37 | 1017.2 |
| 20260905165525 | 29 | 67 | 14.5 | 24.1 | 0.00 | 0.00 | 0.00 | 37 | 1017.3 |
| 20260905165028 | 29 | 74 | 8.0 | 22.5 | 0.00 | 0.00 | 0.00 | 37 | 1017.3 |
| 20260905164526 | 29 | 69 | 14.5 | 22.5 | 0.00 | 0.00 | 0.00 | 37 | 1017.3 |
| 20260905164025 | 30 | 69 | 9.7 | 20.9 | 0.00 | 0.00 | 0.00 | 37 | 1017.4 |
| 20260905163524 | 30 | 66 | 12.9 | 20.9 | 0.00 | 0.00 | 0.00 | 36 | 1017.4 |
| 20260905163024 | 30 | 83 | 11.3 | 20.9 | 0.00 | 0.00 | 0.00 | 36 | 1017.2 |
| 20260905162526 | 30 | 82 | 14.5 | 20.9 | 0.00 | 0.00 | 0.00 | 35 | 1017.2 |
| 20260905162023 | 30 | 71 | 11.3 | 20.9 | 0.00 | 0.00 | 0.00 | 35 | 1017.2 |
| 20260905161524 | 30 | 73 | 16.1 | 20.9 | 0.00 | 0.00 | 0.00 | 34 | 1017.3 |
| 20260905161026 | 31 | 80 | 9.7 | 20.9 | 0.00 | 0.00 | 0.00 | 33 | 1017.4 |
| 20260905160523 | 31 | 59 | 8.0 | 19.3 | 0.00 | 0.00 | 0.00 | 32 | 1017.4 |
| 20260905160028 | 31 | 38 | 8.0 | 24.1 | 0.00 | 0.00 | 0.00 | 32 | 1017.4 |
| 20260905155522 | 31 | 30 | 16.1 | 30.6 | 0.00 | 0.00 | 0.00 | 32 | 1017.3 |
| 20260905155022 | 31 | 19 | 17.7 | 30.6 | 0.00 | 0.00 | 0.00 | 32 | 1017.3 |
| 20260905154522 | 31 | 36 | 12.9 | 27.4 | 0.00 | 0.00 | 0.00 | 32 | 1017.3 |
| 20260905154022 | 31 | 20 | 14.5 | 29.0 | 0.00 | 0.00 | 0.00 | 32 | 1017.4 |
| 20260905153524 | 31 | 15 | 17.7 | 29.0 | 0.00 | 0.00 | 0.00 | 32 | 1017.4 |
| 20260905153021 | 31 | 20 | 12.9 | 25.7 | 0.00 | 0.00 | 0.00 | 32 | 1017.4 |
| 20260905152522 | 31 | 5 | 14.5 | 29.0 | 0.00 | 0.00 | 0.00 | 32 | 1017.4 |
| 20260905152021 | 31 | 28 | 17.7 | 32.2 | 0.00 | 0.00 | 0.00 | 32 | 1017.4 |
| 20260905151523 | 32 | 77 | 16.1 | 30.6 | 0.00 | 0.00 | 0.00 | 31 | 1017.3 |
| 20260905151023 | 32 | 31 | 9.7 | 35.4 | 0.00 | 0.00 | 0.00 | 31 | 1017.3 |
| 20260905150519 | 32 | 360 | 17.7 | 35.4 | 0.00 | 0.00 | 0.00 | 31 | 1017.3 |
| 20260905150018 | 32 | 38 | 14.5 | 25.7 | 0.00 | 0.00 | 0.00 | 32 | 1017.3 |
| 20260905145516 | 32 | 15 | 17.7 | 25.7 | 0.00 | 0.00 | 0.00 | 32 | 1017.3 |
| 20260905145016 | 32 | 40 | 12.9 | 25.7 | 0.00 | 0.00 | 0.00 | 31 | 1017.3 |
| 20260905144516 | 32 | 68 | 11.3 | 30.6 | 0.00 | 0.00 | 0.00 | 31 | 1017.2 |
| 20260905144015 | 32 | 88 | 14.5 | 29.0 | 0.00 | 0.00 | 0.00 | 31 | 1017.3 |
| 20260905143514 | 32 | 65 | 14.5 | 29.0 | 0.00 | 0.00 | 0.00 | 31 | 1017.3 |
| 20260905143015 | 32 | 360 | 12.9 | 24.1 | 0.00 | 0.00 | 0.00 | 31 | 1017.2 |
| 20260905142513 | 32 | 54 | 17.7 | 24.1 | 0.00 | 0.00 | 0.00 | 31 | 1017.2 |
| 20260905142013 | 32 | 11 | 16.1 | 29.0 | 0.00 | 0.00 | 0.00 | 30 | 1017.3 |
| 20260905141513 | 32 | 53 | 12.9 | 29.0 | 0.00 | 0.00 | 0.00 | 30 | 1017.3 |
| 20260905141011 | 32 | 18 | 14.5 | 22.5 | 0.00 | 0.00 | 0.00 | 31 | 1017.2 |
| 20260905140511 | 32 | 61 | 12.9 | 33.8 | 0.00 | 0.00 | 0.00 | 32 | 1017.2 |
| 20260905140011 | 32 | 40 | 14.5 | 33.8 | 0.00 | 0.00 | 0.00 | 31 | 1017.2 |
| 20260905135510 | 32 | 106 | 11.3 | 27.4 | 0.00 | 0.00 | 0.00 | 32 | 1017.1 |
| 20260905135013 | 32 | 62 | 17.7 | 32.2 | 0.00 | 0.00 | 0.00 | 32 | 1017.1 |
| 20260905134509 | 32 | 75 | 16.1 | 32.2 | 0.00 | 0.00 | 0.00 | 32 | 1017.1 |
| 20260905134007 | 32 | 45 | 16.1 | 27.4 | 0.00 | 0.00 | 0.00 | 32 | 1017.2 |
| 20260905133506 | 32 | 54 | 11.3 | 27.4 | 0.00 | 0.00 | 0.00 | 34 | 1017.2 |
| 20260905133010 | 32 | 98 | 12.9 | 27.4 | 0.00 | 0.00 | 0.00 | 33 | 1017.2 |
| 20260905132505 | 32 | 47 | 12.9 | 27.4 | 0.00 | 0.00 | 0.00 | 34 | 1017.4 |
| 20260905132004 | 32 | 19 | 11.3 | 27.4 | 0.00 | 0.00 | 0.00 | 33 | 1017.3 |
| 20260905131506 | 32 | 29 | 11.3 | 22.5 | 0.00 | 0.00 | 0.00 | 33 | 1017.3 |
| 20260905131002 | 32 | 19 | 8.0 | 24.1 | 0.00 | 0.00 | 0.00 | 33 | 1017.3 |
| 20260905130501 | 32 | 46 | 14.5 | 32.2 | 0.00 | 0.00 | 0.00 | 33 | 1017.3 |
| 20260905130100 | 32 | 15 | 8.0 | 32.2 | 0.00 | 0.00 | 0.00 | 33 | 1017.3 |
| 20260905125601 | 32 | 35 | 14.5 | 30.6 | 0.00 | 0.00 | 0.00 | 33 | 1017.2 |
| 20260905125059 | 32 | 65 | 20.9 | 32.2 | 0.00 | 0.00 | 0.00 | 33 | 1017.3 |
| 20260905124558 | 32 | 91 | 17.7 | 32.2 | 0.00 | 0.00 | 0.00 | 33 | 1017.4 |
| 20260905124057 | 32 | 69 | 17.7 | 27.4 | 0.00 | 0.00 | 0.00 | 33 | 1017.4 |
| 20260905123556 | 32 | 9 | 12.9 | 27.4 | 0.00 | 0.00 | 0.00 | 33 | 1017.3 |
| 20260905123058 | 32 | 65 | 12.9 | 32.2 | 0.00 | 0.00 | 0.00 | 33 | 1017.5 |
| 20260905122554 | 32 | 72 | 19.3 | 37.0 | 0.00 | 0.00 | 0.00 | 33 | 1017.4 |
| 20260905122058 | 32 | 355 | 22.5 | 37.0 | 0.00 | 0.00 | 0.00 | 32 | 1017.6 |
| 20260905121557 | 32 | 98 | 12.9 | 33.8 | 0.00 | 0.00 | 0.00 | 32 | 1017.6 |
| 20260905121052 | 32 | 89 | 16.1 | 33.8 | 0.00 | 0.00 | 0.00 | 33 | 1017.6 |
| 20260905120553 | 32 | 79 | 19.3 | 33.8 | 0.00 | 0.00 | 0.00 | 33 | 1017.6 |
| 20260905120050 | 32 | 49 | 20.9 | 33.8 | 0.00 | 0.00 | 0.00 | 34 | 1017.7 |
| 20260905115549 | 32 | 87 | 20.9 | 37.0 | 0.00 | 0.00 | 0.00 | 34 | 1017.7 |
| 20260905115049 | 31 | 85 | 20.9 | 37.0 | 0.00 | 0.00 | 0.00 | 35 | 1017.7 |
| 20260905114549 | 31 | 78 | 16.1 | 37.0 | 0.00 | 0.00 | 0.00 | 35 | 1017.7 |
| 20260905114047 | 31 | 86 | 17.7 | 32.2 | 0.00 | 0.00 | 0.00 | 34 | 1017.8 |
| 20260905113648 | 31 | 29 | 14.5 | 32.2 | 0.00 | 0.00 | 0.00 | 35 | 1017.8 |
| 20260905113050 | 31 | 126 | 17.7 | 32.2 | 0.00 | 0.00 | 0.00 | 35 | 1017.8 |
| 20260905112547 | 32 | 50 | 19.3 | 32.2 | 0.00 | 0.00 | 0.00 | 34 | 1017.8 |
| 20260905112046 | 31 | 60 | 12.9 | 24.1 | 0.00 | 0.00 | 0.00 | 36 | 1017.7 |
| 20260905111625 | 31 | 82 | 9.7 | 33.8 | 0.00 | 0.00 | 0.00 | 36 | 1017.8 |
| 20260905111044 | 31 | 85 | 22.5 | 33.8 | 0.00 | 0.00 | 0.00 | 35 | 1017.8 |
| 20260905110545 | 31 | 58 | 19.3 | 38.6 | 0.00 | 0.00 | 0.00 | 35 | 1017.8 |
| 20260905110044 | 31 | 67 | 19.3 | 38.6 | 0.00 | 0.00 | 0.00 | 36 | 1017.8 |
| 20260905105543 | 31 | 21 | 19.3 | 35.4 | 0.00 | 0.00 | 0.00 | 35 | 1017.8 |
| 20260905105044 | 31 | 39 | 20.9 | 38.6 | 0.00 | 0.00 | 0.00 | 35 | 1017.8 |
| 20260905104541 | 31 | 105 | 22.5 | 38.6 | 0.00 | 0.00 | 0.00 | 35 | 1017.7 |
| 20260905104044 | 31 | 61 | 16.1 | 35.4 | 0.00 | 0.00 | 0.00 | 35 | 1017.7 |
| 20260905103540 | 31 | 88 | 19.3 | 35.4 | 0.00 | 0.00 | 0.00 | 35 | 1017.7 |
| 20260905103041 | 31 | 18 | 16.1 | 32.2 | 0.00 | 0.00 | 0.00 | 35 | 1017.7 |
| 20260905102539 | 31 | 66 | 16.1 | 35.4 | 0.00 | 0.00 | 0.00 | 35 | 1017.7 |
| 20260905102039 | 31 | 19 | 17.7 | 35.4 | 0.00 | 0.00 | 0.00 | 35 | 1017.8 |